Weather in Texas City

United States     29°23′02″N   94°54′08″W
temp.,
°C
wind,
m/s
gust,
m/s
humid.,
%
clouds,
%
prec.,
mm/h
press.,
hPa
HPBL,
m
18 september, sat
sat1801:00+25wsw11870 0.3 101457
04:00+25sw22880 2.1 101532
07:00+24wnw22890 3.1 101528
10:00+28nnw34750 2.2 1016455
13:00+30nne33637 2.3 10151150
16:00+30e22612 0.4 1013976
19:00+27sse22800 2.1 101360
22:00+26sse23840 0.2 1014112
19 september, sun
sun1901:00+25s35850 0.6 1013181
04:00+24ssw22890 2.2 101297
07:00+24wsw12880 4.8 101334
10:00+27sw11770 0.3 1014258
13:00+30sw12615 1.4 10131091
16:00+30sse226144 0.5 10101081
19:00+27sse47810 1.4 1010278
22:00+26sse48840 0.1 1012305
20 september, mon
mon2001:00+25ssw38870 0.2 1012315
04:00+25sw36910 0.0 1011238
07:00+24sw23930 0.1 101195
10:00+28sw34760 0.9 1013393
13:00+31ssw23611 1.1 10131190
16:00+31sse43624 0.0 10111039
19:00+28s47790 0.1 1012281
22:00+26s48860 0.0 1013284
21 september, tue
tue2101:00+26s49890 0.0 1013378
04:00+26ssw38915 0.0 1013320
07:00+25ssw35933 0.1 1015232
10:00+29sw34761 0.3 1017725
13:00+32wnw126041 0.6 10171281
16:00+32se32584 0.6 10161158
19:00+29s35740 0.6 1016158
22:00+27ssw36804 0.0 1017153
22 september, wed
wed2201:00+26wnw3682100 0.0 1018201
04:00+26nw478137 0.6 1018316
07:00+23nne589592 3.8 1019438
10:00+24nne6990100 0.1 1020690
13:00+26nne677373 0.2 1020905
16:00+28ne565720 0.0 10171371
19:00+26ene476497 0.0 1018413
22:00+24ene61055100 0.0 1019473